Flag for Canada Weather past 2 weeks in Iqaluit, Nunavut, Canada

Now
50 °F

Passing clouds.


Feels Like: 44 °F
Forecast: 37 / 50 °F
Wind: 16 mph from Northwest

Location: Iqaluit

Current Time: Aug 31, 2015 at 1:50:31 PM

Latest Report: Aug 31, 2015 at 1:00 PM


Visibility: 30 mi

Pressure: 29.95 "Hg

Humidity: 67%

Dew point: 39 °F

Location of IqaluitLocation

Historic Weather in Iqaluit — Graph

°F

Iqaluit temperature yesterday

Maximum temperature yesterday: 50 °F (at 6:00 PM)
Minimum temperature yesterday: 39 °F (at 3:00 AM)
Average temperature yesterday: 44 °F

Past Weeks' High & Low Weather Summary

 TemperatureHumidityPressure
High50 °F (Aug 16, 4:00 PM)100% (Aug 27, 2:00 AM)30.34 "Hg (Aug 27, 2:00 AM)
Low30 °F (Aug 24, 12:00 AM)53% (Aug 19, 12:00 PM)29.51 "Hg (Aug 27, 3:00 PM)
Average40 °F81%29.90 "Hg
* Reported Aug 16 12:00 Noon — Aug 31 12:00 Noon, Iqaluit, Weather by CustomWeather, © 2015

Note: Actual official high and low records may vary slightly from our data, if they occured in-between our weather recording intervals... More about our weather records

Advertising

Iqaluit weather history for previous 24 hours

 ConditionsComfort  
Time TempWeatherWind HumidityBarometerVisibility
12:00 PM
Mon, Aug 31
46 °FPassing clouds.17 mph71%29.96 "Hg30 mi
11:00 AM45 °FBroken clouds.16 mph76%29.96 "Hg30 mi
10:00 AM43 °FPartly sunny.17 mph76%29.96 "Hg30 mi
9:00 AM41 °FPartly sunny.18 mph81%29.94 "Hg30 mi
8:00 AM41 °FPartly sunny.17 mph81%29.94 "Hg30 mi
7:00 AM41 °FPartly sunny.22 mph81%29.93 "Hg20 mi
6:00 AM39 °FPassing clouds.18 mph93%29.92 "Hg20 mi
5:00 AM39 °FPassing clouds.18 mph93%29.90 "Hg30 mi
4:00 AM41 °FPassing clouds.20 mph87%29.88 "Hg15 mi
3:00 AM41 °FPassing clouds.21 mph87%29.87 "Hg15 mi
2:00 AM41 °FPassing clouds.17 mph87%29.86 "Hg15 mi
1:00 AM41 °FPassing clouds.15 mph87%29.85 "Hg15 mi
12:00 AM41 °FPassing clouds.13 mph87%29.85 "Hg15 mi
11:00 PM
Sun, Aug 30
43 °FPassing clouds.15 mph87%29.85 "Hg15 mi
10:00 PM45 °FPassing clouds.15 mph81%29.84 "Hg15 mi
9:00 PM45 °FPassing clouds.13 mph81%29.84 "Hg15 mi
8:00 PM46 °FBroken clouds.14 mph76%29.84 "Hg30 mi
7:00 PM48 °FScattered clouds.15 mph76%29.83 "Hg30 mi
6:00 PM50 °FPartly sunny.15 mph67%29.82 "Hg30 mi
4:00 PM43 °FLight rain. Mostly cloudy.2 mph93%29.83 "Hg30 mi
3:00 PM43 °FLight rain. Partly sunny.2 mph87%29.83 "Hg30 mi
2:00 PM45 °FMostly cloudy.7 mph81%29.82 "Hg30 mi
1:00 PM48 °FMostly cloudy.6 mph71%29.80 "Hg30 mi
Weather by CustomWeather, © 2015

See weather overviewHow to use our weather pages